Regional Weather Roundup
Issued by NWS

Home | Current Version | Previous Version | Text Only | Print | Product List | Glossary On
Versions: 1 2 3 4 5 6 7 8 9 10 11 12 13 14 15 16 17 18 19 20 21 22 23 24 25 26 27 28 29 30 31 32 33 34 35 36 37 38 39 40 41 42 43 44 45 46 47 48 49 50
000
ASPQ40 PGUM 312012
RWRPQ
WEATHER ROUNDUP FOR THE MARIANAS AND MICRONESIA
NATIONAL WEATHER SERVICE TIYAN GU
600 AM CHST FRI AUG 01 2014

GUZ001>004-312100-
MARIANA ISLANDS-

CITY           SKY/WX    TMP DP  RH WIND       PRES   REMARKS
GUAM AIRPORT   PTCLDY    79  77  94 SE3       29.82R
ANDERSEN AFB   CLOUDY    77  75  94 S6        29.83R
ROTA AIRPORT   NOT AVBL
TINIAN AP      MOCLDY    77  75  94 SE3       29.80
SAIPAN AP      CLEAR     79  75  89 SE5       29.81S

$$

PMZ161-312100-
REPUBLIC OF PALAU-

CITY           SKY/WX    TMP DP  RH WIND       PRES   REMARKS
KOROR AP       MOCLDY    82  81  94 S5        29.82S HX  95
KOROR WSO      MOCLDY    81  77  89 S7        29.82R

$$

PMZ171>174-312100-
FEDERATED STATES OF MICRONESIA-

CITY           SKY/WX    TMP DP  RH WIND       PRES   REMARKS
YAP AIRPORT    CLOUDY    81  75  83 SW9       29.81R
CHUUK AP       HVY RAIN  77  75  94 VRB3      29.82R
POHNPEI AP     NOT AVBL
POHNPEI WSO    PTCLDY    77  75  94 S3        29.83R
KOSRAE AP      NOT AVBL

$$

PMZ181-312100-
REPUBLIC OF THE MARSHALL ISLANDS-

CITY           SKY/WX    TMP DP  RH WIND       PRES   REMARKS
KWAJALEIN AP   SUNNY     82  72  69 SE5       29.86R
MAJURO AP      NOT AVBL
MAJURO WSO     MOSUNNY   82  77  83 CALM      29.85R HX  91

$$



USA.gov is the U.S. government's official web portal to all federal, state and local government web resources and services.